This is the latest recevied weather packets stored in our database for station/object SP2WM. If no packets are shown the sender has not sent any weather packets the latest 10 day(s).
| Time | Temp. | Humidity | Pressure | Rain* | Wind** | Luminosity | Snow |
|---|---|---|---|---|---|---|---|
| 1777533621 | 7.78° C | 43% | 1028.7 hPa | 0 mm | - | - | - |
| 1777533021 | 7.22° C | 47% | 1028.6 hPa | 0 mm | - | - | - |
| 1777532420 | 6.67° C | 47% | 1028.7 hPa | 0 mm | - | - | - |
| 1777531821 | 6.11° C | 50% | 1028.7 hPa | 0 mm | - | - | - |
| 1777531219 | 6.11° C | 51% | 1028.7 hPa | 0 mm | - | - | - |
| 1777530623 | 5.56° C | 53% | 1028.7 hPa | 0 mm | - | - | - |
| 1777530024 | 5.56° C | 54% | 1028.6 hPa | 0 mm | - | - | - |
| 1777529421 | 5° C | 57% | 1028.4 hPa | 0 mm | - | - | - |
| 1777528823 | 4.44° C | 59% | 1028.4 hPa | 0 mm | - | - | - |
| 1777528228 | 3.89° C | 59% | 1028.5 hPa | 0 mm | - | - | - |
| 1777527626 | 3.33° C | 62% | 1028.5 hPa | 0 mm | - | - | - |
| 1777527028 | 3.33° C | 64% | 1028.5 hPa | 0 mm | - | - | - |
| 1777525835 | 1.67° C | 72% | 1028.5 hPa | 0 mm | - | - | - |
| 1777525236 | 0.56° C | 77% | 1028.4 hPa | 0 mm | - | - | - |
| 1777524636 | -0.56° C | 77% | 1028.3 hPa | 0 mm | - | - | - |
| 1777524033 | -1.11° C | 80% | 1028.2 hPa | 0 mm | - | - | - |
| 1777523434 | -1.67° C | 82% | 1028.3 hPa | 0 mm | - | - | - |
| 1777522838 | -2.78° C | 84% | 1028.5 hPa | 0 mm | - | - | - |
| 1777522235 | -3.33° C | 85% | 1028.5 hPa | 0 mm | - | - | - |
| 1777521636 | -3.89° C | 85% | 1028.7 hPa | 0 mm | - | - | - |
| 1777521037 | -3.89° C | 85% | 1028.6 hPa | 0 mm | - | - | - |
| 1777520421 | -4.44° C | 84% | 1028.5 hPa | 0 mm | - | - | - |
| 1777519821 | -4.44° C | 84% | 1028.4 hPa | 0 mm | - | - | - |
| 1777519222 | -4.44° C | 84% | 1028.6 hPa | 0 mm | - | - | - |
| 1777518619 | -3.89° C | 83% | 1028.5 hPa | 0 mm | - | - | - |
* Rain latest hour (hover to see other rain measurements)
** Current wind speed in m/s (hover to see current wind gust speed)